This is the latest recevied weather packets stored in our database for station/object KO4LCK. If no packets are shown the sender has not sent any weather packets the latest 1 day(s).
| Time | Temp. | Humidity | Pressure | Rain* | Wind** | Luminosity | Snow |
|---|---|---|---|---|---|---|---|
| 1778025144 | 23.33° C | 47% | 1013.2 hPa | 0 mm | 0 m/s | 21 W/m² | - |
| 1778024840 | 23.33° C | 47% | 1013.3 hPa | 0 mm | 0 m/s | 25 W/m² | - |
| 1778024538 | 23.33° C | 47% | 1013.3 hPa | 0 mm | 0 m/s | 28 W/m² | - |
| 1778024234 | 23.33° C | 46% | 1013.3 hPa | 0 mm | 0.89 m/s, 210° | 27 W/m² | - |
| 1778023932 | 23.89° C | 47% | 1013.5 hPa | 0 mm | 0 m/s | 32 W/m² | - |
| 1778023629 | 23.89° C | 49% | 1013.4 hPa | 0 mm | 0 m/s | 33 W/m² | - |
| 1778023326 | 23.89° C | 44% | 1013.5 hPa | 0 mm | 0.89 m/s, 217° | 28 W/m² | - |
| 1778023023 | 23.89° C | 44% | 1013.7 hPa | 0 mm | 0 m/s | 29 W/m² | - |
| 1778022722 | 23.89° C | 43% | 1013.5 hPa | 0 mm | 0.89 m/s, 125° | 25 W/m² | - |
| 1778022420 | 24.44° C | 42% | 1013.6 hPa | 0 mm | 0.45 m/s, 221° | 31 W/m² | - |
| 1778022116 | 24.44° C | 42% | 1013.4 hPa | 0 mm | 0.89 m/s, 209° | 35 W/m² | - |
| 1778021812 | 25° C | 42% | 1013.4 hPa | 0 mm | 1.79 m/s, 157° | 36 W/m² | - |
| 1778021508 | 25° C | 41% | 1013.5 hPa | 0 mm | 0.89 m/s, 201° | 46 W/m² | - |
| 1778021205 | 25° C | 41% | 1013.6 hPa | 0 mm | 0.45 m/s, 281° | 94 W/m² | - |
| 1778020904 | 25° C | 41% | 1013.5 hPa | 0 mm | 0.45 m/s, 245° | 96 W/m² | - |
| 1778020601 | 25° C | 40% | 1013.2 hPa | 0 mm | 0.45 m/s, 189° | 165 W/m² | - |
| 1778020296 | 25° C | 39% | 1013.3 hPa | 0 mm | 1.79 m/s, 186° | 116 W/m² | - |
| 1778019992 | 25.56° C | 38% | 1013.3 hPa | 0 mm | 2.24 m/s, 211° | 102 W/m² | - |
| 1778019689 | 26.11° C | 38% | 1013.3 hPa | 0 mm | 1.34 m/s, 213° | 87 W/m² | - |
| 1778019386 | 26.11° C | 37% | 1013.2 hPa | 0 mm | 1.34 m/s, 194° | 98 W/m² | - |
| 1778019082 | 26.11° C | 39% | 1013.2 hPa | 0 mm | 0.45 m/s, 190° | 278 W/m² | - |
| 1778018780 | 25.56° C | 39% | 1013.2 hPa | 0 mm | 1.34 m/s, 203° | 334 W/m² | - |
| 1778018477 | 25° C | 40% | 1013.1 hPa | 0 mm | 0.45 m/s, 288° | 277 W/m² | - |
| 1778018175 | 25° C | 40% | 1013.1 hPa | 0 mm | 0 m/s | 182 W/m² | - |
| 1778017873 | 25° C | 40% | 1013.3 hPa | 0 mm | 0.45 m/s, 131° | 67 W/m² | - |
* Rain latest hour (hover to see other rain measurements)
** Current wind speed in m/s (hover to see current wind gust speed)